Regional Weather Roundup
Issued by NWS Albany, NY

Home | Current Version | Previous Version | Text Only | Print | Product List | Glossary On
Versions: 1 2 3 4 5 6 7 8 9 10 11 12 13 14 15 16 17 18 19 20 21 22 23 24 25 26 27 28 29 30 31 32 33 34 35 36 37 38 39 40 41 42 43 44 45 46 47 48 49 50
000
ASUS41 KALY 210610
RWRALY

NEW YORK STATE HOURLY WEATHER ROUNDUP
NATIONAL WEATHER SERVICE ALBANY NY
100 AM EST SAT JAN 21 2017

NOTE: "FAIR" INDICATES FEW OR NO CLOUDS BELOW 12,000 FEET WITH NO
SIGNIFICANT WEATHER AND/OR NO OBSTRUCTIONS TO VISIBILITY.

NYZ032-033-038>043-046>054-057>066-NYZ062>081-082-084-210700-
EAST


CITY           SKY/WX    TMP DP  RH WIND       PRES   REMARKS
ALBANY         CLOUDY    39  34  82 S7        29.86F WCI  34
GLENS FALLS    FOG       35  32  88 CALM      29.85F VSB 3/4
POUGHKEEPSIE   CLOUDY    37  36  96 CALM      29.90S FOG
NEWBURGH       LGT RAIN  37  37 100 CALM      29.90S FOG
MONTGOMERY     CLOUDY    39  37  92 CALM      29.88S FOG
WHITE PLAINS   FOG       39  37  92 CALM      29.90R VSB 3/4
ISLIP          LGT RAIN  42  42 100 SW6       29.91S FOG
NEW YORK CITY  CLOUDY    44  40  85 SW7       29.92S
CENTRAL PARK   CLOUDY    42  40  92 VRB7      29.94S FOG
$$

NYZ005>009-017-018-044>046-055-056-210700-
CENTRAL


CITY           SKY/WX    TMP DP  RH WIND       PRES   REMARKS
FULTON         CLOUDY    38  36  92 SE3       29.79F FOG
SYRACUSE       DRIZZLE   37  37 100 E3        29.80S FOG
ROME           CLOUDY    37  35  92 VRB5      29.83S WCI  33
ELMIRA         CLOUDY    39  37  92 CALM      29.83S FOG
BINGHAMTON     FOG       36  36 100 S6        29.81S VSB 1/4 WCI  31
MONTICELLO     CLOUDY    34  34 100 CALM      29.87S VSB 1/4
$$

NYZ026>034-041>043-087-210700-
NORTH


CITY           SKY/WX    TMP DP  RH WIND       PRES   REMARKS
WATERTOWN      CLOUDY    41  39  93 CALM      29.78S
FORT DRUM      NOT AVBL
OGDENSBURG     CLOUDY    35  32  90 CALM      29.79F
MASSENA        CLOUDY    34  31  88 CALM      29.81F
SARANAC LAKE   CLOUDY    33  31  92 SW7       29.75F FOG     WCI  27
PLATTSBURGH    CLOUDY    33  30  88 CALM      29.82F
$$

NYZ001>004-010>016-019>021-085-210700-
WEST


CITY           SKY/WX    TMP DP  RH WIND       PRES   REMARKS
NIAGARA FALLS  CLOUDY    44  40  85 SW10      29.78R
BUFFALO        CLOUDY    41  39  93 SW10      29.79R FOG
DUNKIRK        CLOUDY    45  44  97 SW8       29.81R
JAMESTOWN      CLOUDY    46  45  93 SW7       29.79R
WELLSVILLE     CLOUDY    45  43  93 SW7       29.81R FOG
ROCHESTER      DRIZZLE   44  42  93 CALM      29.78S
PENN YAN       CLOUDY    43  37  79 SW10      29.80F
$$

             KEY
       WCI = WIND CHILL INDEX
       VSB = VISIBILITY
       HX  = HEAT INDEX
$$



USA.gov is the U.S. government's official web portal to all federal, state and local government web resources and services.